• In Netherlands
  • List of Countries
  • For 7 days
  • Water Temperature
  • Satellite Maps
  • Weather Map
  • Weather Widgets
  • user-avatar
    Login

    Hourly Weather Bregenz

    Today, 18 November, Saturday

    Time Temperature Precipitation Wind Pressure Humidity
    00:00 -4°C° 0 mm 1 mps 646 mmHg 90%
    01:00 -4°C° 0 mm 1 mps 646 mmHg 90%
    02:00 -4°C° 0 mm 1 mps 646 mmHg 90%
    03:00 -4°C° 0 mm 1 mps 646 mmHg 90%
    04:00 -6°C° 0 mm 1 mps 646 mmHg 90%
    05:00 -4°C° 0 mm 1 mps 646 mmHg 90%
    06:00 -4°C° 0 mm 1 mps 646 mmHg 90%
    07:00 -4°C° 0 mm 1 mps 646 mmHg 89%
    08:00 -3°C° 0 mm 1 mps 646 mmHg 85%
    09:00 -2°C° 0 mm 1 mps 646 mmHg 82%
    10:00 0°C° 0 mm 1 mps 647 mmHg 78%
    11:00 +1°C° 0 mm 1 mps 647 mmHg 75%
    12:00 +2°C° 0 mm 1 mps 646 mmHg 72%
    13:00 +3°C° 0 mm 1 mps 646 mmHg 70%
    14:00 +2°C° 0 mm 1 mps 646 mmHg 75%
    15:00 +1°C° 0 mm 1 mps 646 mmHg 80%
    16:00 0°C° 0 mm 1 mps 645 mmHg 85%
    17:00 -4°C° 0 mm 2 mps 645 mmHg 86%
    18:00 -5°C° 0 mm 2 mps 646 mmHg 87%
    19:00 -6°C° 0 mm 2 mps 646 mmHg 89%
    20:00 -6°C° 0 mm 2 mps 646 mmHg 88%
    21:00 -6°C° 0 mm 2 mps 646 mmHg 87%
    22:00 -7°C° 0 mm 2 mps 646 mmHg 86%
    23:00 -6°C° 0.1 mm 2 mps 645 mmHg 83%

    Tomorrow, 19 November, Sunday

    Time Temperature Precipitation Wind Pressure Humidity
    00:00 -6°C° 0.1 mm 2 mps 645 mmHg 80%
    01:00 -6°C° 0.1 mm 2 mps 645 mmHg 78%
    02:00 -5°C° 0.4 mm 2 mps 645 mmHg 78%
    03:00 -6°C° 0.4 mm 3 mps 644 mmHg 79%
    04:00 -6°C° 0.4 mm 3 mps 644 mmHg 80%
    05:00 -5°C° 0.8 mm 3 mps 644 mmHg 84%
    06:00 -5°C° 0.8 mm 3 mps 644 mmHg 88%
    07:00 -5°C° 0.8 mm 3 mps 643 mmHg 92%
    08:00 -5°C° 0.7 mm 3 mps 644 mmHg 92%
    09:00 -4°C° 0.7 mm 3 mps 644 mmHg 93%
    10:00 -4°C° 0.7 mm 3 mps 644 mmHg 93%
    11:00 -2°C° 0.3 mm 3 mps 645 mmHg 92%
    12:00 -2°C° 0.3 mm 3 mps 645 mmHg 92%
    13:00 -1°C° 0.3 mm 3 mps 645 mmHg 91%
    14:00 -2°C° 0.2 mm 3 mps 645 mmHg 92%
    15:00 -2°C° 0.2 mm 3 mps 645 mmHg 92%
    16:00 -2°C° 0.2 mm 3 mps 645 mmHg 93%
    17:00 -3°C° 0.2 mm 2 mps 645 mmHg 94%
    18:00 -4°C° 0.2 mm 2 mps 646 mmHg 95%
    19:00 -4°C° 0.2 mm 2 mps 646 mmHg 96%
    20:00 -5°C° 0.1 mm 2 mps 646 mmHg 96%
    21:00 -5°C° 0.1 mm 2 mps 647 mmHg 96%
    22:00 -4°C° 0.1 mm 1 mps 647 mmHg 96%
    23:00 -4°C° 0 mm 1 mps 647 mmHg 95%

    Day after tomorrow, 20 November, Monday

    Time Temperature Precipitation Wind Pressure Humidity
    00:00 -6°C° 0 mm 1 mps 647 mmHg 95%
    01:00 -6°C° 0 mm 1 mps 647 mmHg 94%
    02:00 -7°C° 0 mm 1 mps 647 mmHg 92%
    03:00 -8°C° 0 mm 2 mps 646 mmHg 90%
    04:00 -9°C° 0 mm 2 mps 646 mmHg 88%
    05:00 -8°C° 0 mm 2 mps 646 mmHg 86%
    06:00 -8°C° 0 mm 2 mps 647 mmHg 84%
    07:00 -8°C° 0 mm 2 mps 647 mmHg 82%
    08:00 -6°C° 0 mm 2 mps 647 mmHg 79%
    09:00 -5°C° 0 mm 2 mps 647 mmHg 77%
    10:00 -3°C° 0 mm 2 mps 647 mmHg 75%
    11:00 -2°C° 0 mm 2 mps 647 mmHg 75%
    12:00 +1°C° 0 mm 1 mps 647 mmHg 75%
    13:00 +2°C° 0 mm 1 mps 647 mmHg 75%
    14:00 +2°C° 0 mm 1 mps 647 mmHg 77%
    15:00 +1°C° 0 mm 1 mps 646 mmHg 80%
    16:00 -1°C° 0 mm 2 mps 646 mmHg 82%
    17:00 -2°C° 0 mm 2 mps 646 mmHg 82%
    18:00 -3°C° 0 mm 2 mps 646 mmHg 82%
    19:00 -4°C° 0 mm 2 mps 646 mmHg 82%
    20:00 -4°C° 0 mm 2 mps 646 mmHg 82%
    21:00 -4°C° 0 mm 2 mps 645 mmHg 82%
    22:00 -5°C° 0 mm 3 mps 645 mmHg 82%
    23:00 -5°C° 0 mm 3 mps 645 mmHg 81%

    21 November, Tuesday

    Time Temperature Precipitation Wind Pressure Humidity
    00:00 -5°C° 0 mm 3 mps 645 mmHg 81%
    01:00 -5°C° 0 mm 3 mps 645 mmHg 81%
    02:00 -4°C° 0.1 mm 3 mps 645 mmHg 81%
    03:00 -3°C° 0.1 mm 2 mps 645 mmHg 81%
    04:00 -2°C° 0.1 mm 2 mps 645 mmHg 81%
    05:00 -2°C° 0.1 mm 2 mps 645 mmHg 82%
    06:00 -2°C° 0.1 mm 2 mps 646 mmHg 83%
    07:00 -2°C° 0.1 mm 2 mps 646 mmHg 84%
    08:00 -1°C° 0 mm 2 mps 646 mmHg 84%
    09:00 +1°C° 0 mm 2 mps 646 mmHg 83%
    10:00 +1°C° 0 mm 2 mps 646 mmHg 83%
    11:00 +3°C° 0 mm 2 mps 646 mmHg 83%
    12:00 +4°C° 0 mm 2 mps 646 mmHg 83%
    13:00 +5°C° 0 mm 2 mps 646 mmHg 83%
    14:00 +4°C° 0 mm 2 mps 646 mmHg 83%
    15:00 +3°C° 0 mm 2 mps 646 mmHg 84%
    16:00 +3°C° 0 mm 1 mps 645 mmHg 84%
    17:00 +1°C° 0 mm 2 mps 645 mmHg 83%
    18:00 -1°C° 0 mm 2 mps 645 mmHg 82%
    19:00 -2°C° 0 mm 2 mps 645 mmHg 80%
    20:00 -2°C° 0 mm 2 mps 645 mmHg 79%
    21:00 -2°C° 0 mm 2 mps 645 mmHg 78%
    22:00 -2°C° 0 mm 2 mps 645 mmHg 76%
    23:00 -2°C° 0 mm 2 mps 645 mmHg 75%

    22 November, Wednesday

    Time Temperature Precipitation Wind Pressure Humidity
    00:00 -2°C° 0 mm 2 mps 645 mmHg 74%
    01:00 -2°C° 0 mm 2 mps 645 mmHg 73%
    02:00 -3°C° 0 mm 2 mps 644 mmHg 72%
    03:00 -3°C° 0 mm 2 mps 644 mmHg 72%
    04:00 -3°C° 0 mm 2 mps 644 mmHg 72%
    05:00 -3°C° 0 mm 2 mps 644 mmHg 71%
    06:00 -3°C° 0 mm 2 mps 644 mmHg 71%
    07:00 -3°C° 0 mm 2 mps 644 mmHg 70%
    08:00 -1°C° 0 mm 2 mps 645 mmHg 70%
    09:00 +1°C° 0 mm 2 mps 645 mmHg 71%
    10:00 +2°C° 0 mm 2 mps 645 mmHg 71%
    11:00 +4°C° 0 mm 2 mps 645 mmHg 72%
    12:00 +6°C° 0 mm 1 mps 645 mmHg 74%
    13:00 +7°C° 0 mm 1 mps 645 mmHg 75%
    14:00 +6°C° 0 mm 1 mps 645 mmHg 76%
    15:00 +5°C° 0 mm 1 mps 645 mmHg 77%
    16:00 +4°C° 0 mm 1 mps 644 mmHg 78%
    17:00 +2°C° 0 mm 2 mps 644 mmHg 77%
    18:00 +1°C° 0 mm 2 mps 644 mmHg 76%
    19:00 -1°C° 0 mm 2 mps 644 mmHg 76%
    20:00 -1°C° 0 mm 2 mps 644 mmHg 75%
    21:00 -2°C° 0 mm 2 mps 644 mmHg 74%
    22:00 -2°C° 0 mm 2 mps 644 mmHg 74%
    23:00 -2°C° 0 mm 2 mps 644 mmHg 74%

    23 November, Thursday

    Time Temperature Precipitation Wind Pressure Humidity
    00:00 -2°C° 0 mm 2 mps 644 mmHg 74%
    01:00 -2°C° 0 mm 2 mps 644 mmHg 74%
    02:00 -2°C° 0 mm 3 mps 643 mmHg 75%
    03:00 -2°C° 0 mm 3 mps 643 mmHg 75%
    04:00 -4°C° 0 mm 3 mps 643 mmHg 76%
    05:00 -4°C° 0 mm 3 mps 643 mmHg 76%
    06:00 -4°C° 0 mm 3 mps 643 mmHg 77%
    07:00 -4°C° 0 mm 3 mps 643 mmHg 77%
    08:00 -1°C° 0 mm 2 mps 644 mmHg 77%
    09:00 +1°C° 0 mm 2 mps 644 mmHg 77%
    10:00 +2°C° 0 mm 2 mps 645 mmHg 76%
    11:00 +3°C° 0 mm 2 mps 645 mmHg 77%
    12:00 +4°C° 0 mm 2 mps 645 mmHg 77%
    13:00 +5°C° 0 mm 2 mps 645 mmHg 77%
    14:00 +5°C° 0 mm 2 mps 645 mmHg 79%
    15:00 +4°C° 0 mm 2 mps 645 mmHg 81%
    16:00 +3°C° 0 mm 2 mps 645 mmHg 83%
    17:00 +2°C° 0 mm 2 mps 645 mmHg 84%
    18:00 0°C° 0 mm 3 mps 645 mmHg 84%
    19:00 0°C° 0 mm 3 mps 645 mmHg 84%
    20:00 -1°C° 0 mm 3 mps 645 mmHg 84%
    21:00 -1°C° 0 mm 3 mps 645 mmHg 83%
    22:00 -1°C° 0 mm 3 mps 645 mmHg 83%
    23:00 -1°C° 0 mm 3 mps 646 mmHg 82%
    Show more